Regional Weather Roundup
Issued by NWS

Home | Current Version | Previous Version | Text Only | Print | Product List | Glossary On
Versions: 1 2 3 4 5 6 7 8 9 10 11 12 13 14 15 16 17 18 19 20 21 22 23 24 25 26 27 28 29 30 31 32 33 34 35 36 37 38 39 40 41 42 43 44 45 46 47 48 49 50
000
ASUS44 KLUB 021110
RWRTX
WEST TEXAS WEATHER ROUNDUP
NATIONAL WEATHER SERVICE LUBBOCK TX
500 AM CST MON MAR 02 2015

NOTE: "FAIR" INDICATES FEW OR NO CLOUDS BELOW 12,000 FEET WITH NO
SIGNIFICANT WEATHER AND/OR OBSTRUCTIONS TO VISIBILITY.

TXZ004-006>008-010-012-014-016-OKZ002-021200-
TEXAS PANHANDLE/OKLAHOMA PANHANDLE

CITY           SKY/WX    TMP DP  RH WIND       PRES   REMARKS
AMARILLO       CLOUDY    28  25  88 E5        30.29F FOG     WCI  23
BORGER         CLOUDY    28  23  81 NE6       30.32F HAZE    WCI  22
CANADIAN       CLOUDY    31  25  79 CALM      30.36F
DALHART        CLOUDY    26  22  84 SW7       30.27F FOG     WCI  18
DUMAS          CLOUDY    26  23  89 CALM      30.28F FOG
GUYMON         CLOUDY    28  23  81 S5        30.30F WCI  23
HEREFORD       CLOUDY    30  28  94 E5        30.28F FOG     WCI  25
PAMPA          CLOUDY    27  26  93 E7        30.31F FOG     WCI  20
PERRYTON       CLOUDY    28  25  87 CALM      30.33S
$$

TXZ026-029-035-045-048-021200-
SOUTHERN PANHANDLE/SOUTH PLAINS/ROLLING PLAINS

CITY           SKY/WX    TMP DP  RH WIND       PRES   REMARKS
CHILDRESS      CLOUDY    30  25  81 E3        30.39F
SEMINOLE       CLOUDY    31  31 100 NE6       30.31F FOG     WCI  25
LUBBOCK        FOG       28  27  96 E9        30.30S VSB 1   WCI  19
PLAINVIEW      CLOUDY    29  28  96 E6        30.29F FOG     WCI  23
SNYDER         CLOUDY    30  29  98 NE6       30.34F FOG     WCI  24
$$

TXZ052-054-060>062-072-078-127-140-154-169-021200-
PERMIAN BASIN/CONCHO VALLEY/BIG COUNTRY/EDWARDS PLATEAU

CITY           SKY/WX    TMP DP  RH WIND       PRES   REMARKS
ABILENE        CLOUDY    31  29  92 N12       30.36S FOG     WCI  22
BIG SPRING     CLOUDY    33  32  94 NE9       30.33F WCI  26
BRADY          MIX PCPN  34  34 100 N8        30.30S FOG     WCI  27
JUNCTION       CLOUDY    35  34  96 N6        30.30R FOG     WCI  30
MIDLAND        CLOUDY    32  31  96 NE12      30.30S FOG     WCI  23
ODESSA         CLOUDY    31  29  92 NE12      30.30S FOG     WCI  22
SAN ANGELO     CLOUDY    34  33  96 NE8       30.32F WCI  27
SONORA         CLOUDY    34  34 100 N12       30.32F WCI  25
SWEETWATER     CLOUDY    32  32 100 CALM      30.35F
WINK           CLOUDY    34  30  85 NE13      30.28F WCI  25
$$

TXZ055-058-074-075-080-082-021200-
FAR WEST/SOUTHWEST MOUNTAINS/TRANS PECOS

CITY           SKY/WX    TMP DP  RH WIND       PRES   REMARKS
ALPINE         CLOUDY    35  35  99 NE7       30.28S VSB 1/2 WCI  29
DRYDEN           N/A     39  38  96 NE8       30.25S WCI  33
EL PASO        CLOUDY    56  31  38 VRB3      30.04F
FORT STOCKTON  FOG       33  33 100 NE5       30.29S VSB 1/4 WCI  29
MARFA          CLOUDY    39  36  87 NE8       30.18S WCI  34
PECOS          CLOUDY    34  33  96 NE8       30.31F FOG     WCI  27
PRESIDIO       FAIR      50  40  69 NE12G18   30.12S
$$

TXZ014-016-019-021>030-083-021200
TEXAS TECH WEST TEXAS MESONET/TEXAS PANHANDLE/NORTHERN SOUTH PLAINS

CITY           SKY/WX    TMP DP  RH WIND       PRES   REMARKS
ABERNATHY 5ENE   N/A     26  26  99 E8        30.32S WCI  18
AMARILLO 9NNE    N/A     28  26  92 N1        30.30S
AMARILLO 7SSE    N/A     28  25  91 CALM      30.29F
AMHERST 1NE      N/A     28  28  99 E8        30.27F WCI  20
BOOTLEG 11WNW    N/A     26  25  95 E3        30.26F
CANADIAN 6E      N/A     28  23  81 E3        30.34F
CAPROCK CYN SP   N/A     29  26  89 E3        30.34F
CHILDRESS 2NNE   N/A     29  24  81 NE6       30.38S WCI  23
CLARENDON 2WSW   N/A     29  24  82 E6        30.33F WCI  22
CLAUDE 12SW      N/A     26  25  97 E5        30.28F WCI  20
DIMMITT 2NE      N/A     27  26  96 E5        30.28R WCI  21
FLOYDADA 2NNE    N/A     26  25  95 NE6       30.30F WCI  20
FRIONA 2NE       N/A     28  27  98 SE6       30.28R WCI  21
GOODLETT 3W      N/A     30  25  81 NE8       30.39F WCI  22
HART 3N          N/A     28  27  99 E5        30.28S WCI  22
HEREFORD 2NW     N/A     28  27  98 E2        30.27F
MEMPHIS 1NE      N/A     30  27  87 E2        30.37F
MULESHOE 2SSW    N/A     28  28  99 E5        30.27F WCI  23
OLTON 6S         N/A     28  27  96 E7        30.28F WCI  21
PALO DURO SP     N/A     27  26  94 SE2       30.30F
PAMPA 2E         N/A     26  24  94 E6        30.30F WCI  19
PLAINVIEW 1S     N/A     26  26  99 E6        30.30F WCI  20
SILVERTON 7ESE   N/A     27  24  89 E6        30.31F WCI  20
TULIA 2ENE       N/A     26  26  99 E8        30.30S WCI  18
TURKEY 2WSW      N/A     29  27  90 E5        30.34F WCI  24
UMBARGER 3NNE    N/A     27  25  89 E1        30.28F
$$

TXZ033>036-039>041-045>048-021200
TEXAS TECH WEST TEXAS MESONET/SOUTH PLAINS

CITY           SKY/WX    TMP DP  RH WIND       PRES   REMARKS
AIKEN 3WSW       N/A     26  25  94 E8        30.31F WCI  18
ANDREWS 2NE      N/A     31  30  96 NE6       30.31S WCI  25
ANTON 6SSW       N/A     28  28  99 E10       30.29F WCI  19
BROWNFIELD 2S    N/A     28  28  99 E9        30.30S WCI  19
DENVR CTY 7WNW   N/A     28  28  99 E6        30.29R WCI  22
GAIL 2ESE        N/A     30  29  98 NE8       30.33R WCI  22
LAMESA 2SE       N/A     30  29  99 NE6       30.32F WCI  24
LEVELLAND 4S     N/A     28  27  95 E9        30.29F WCI  20
LUBBOCK 3WNW     N/A     28  28  99 NE8       30.31F WCI  20
MORTON 1ENE      N/A     28  28  99 E6        30.28S WCI  22
ODONNELL 1N      N/A     28  28  99 NE7       30.31S WCI  21
PLAINS 3N        N/A     29  29  99 NE6       30.29R WCI  23
RALLS 1SE        N/A     27  27  98 NE8       30.33R WCI  19
REESE CENTER     N/A     28  28  99 E8        30.29F WCI  20
SEAGRAVES 1SW    N/A     29  29  99 NE5       30.30S WCI  24
SEMINOLE 2NNE    N/A     30  29  99 NE7       30.30F WCI  23
SLATON 2NE       N/A     28  27  99 NE7       30.32S WCI  20
SNYDER 3E        N/A     29  29  99 NE2       30.34S
SUNDOWN 8SW      N/A     29  28  98 E6        30.28S WCI  23
TAHOKA 3NNE      N/A     28  28  98 E7        30.31S WCI  21
WOLFFORTH 6SSW   N/A     29  29  99 E7        30.30F WCI  22
$$

TXZ031-032-036>038-042>044-021200-
TEXAS TECH WEST TEXAS MESONET/ROLLING PLAINS

CITY           SKY/WX    TMP DP  RH WIND       PRES   REMARKS
ASPERMONT 3NE    N/A     30  29  97 N7        30.38F WCI  23
FLUVANNA 3WNW    N/A     28  28  98 NE7       30.32S WCI  21
GRAHAM 5SSW      N/A     28  28  97 NE1       30.33R
GUTHRIE 10WSW    N/A     29  27  90 N7        30.36F WCI  22
HASKELL 1NW      N/A     31  29  95 N9        30.38S WCI  23
JAYTON 1SSE      N/A     29  29  99 NE9       30.37S WCI  21
KNOX CITY 3NW    N/A     32  29  89 N5        30.39F WCI  27
LK A HENRY 1NW   N/A     29 -17  12 NE6       30.35S WCI  23
NORTHFIELD 1S    N/A     30  27  90 E3        30.38S
ODELL 4ENE       N/A     30  26  86 N9        30.42S WCI  21
PADUCAH 10SW     N/A     29  25  84 N7        30.37F WCI  22
POST 1NE         N/A     29  28  97 NE3       30.34F
RRING SPRGS 3N   N/A     27  27  99 NE5       30.34F WCI  21
SEYMOUR 3NW      N/A     32  27  81 N8        30.39F WCI  24
SPUR 1W          N/A     28  28  96 NE6       30.35S WCI  22
WEINERT 2NNE     N/A     31  29  90 N6        30.39S WCI  26
WHITE RVR 6NE    N/A     28  27  94 NE6       30.33R WCI  22
$$

TXZ052-054-060>062-072-078-127-140-154-169-021200-
TEXAS TECH WEST TEXAS MESONET/PERMIAN BASIN/
CONCHO VALLEY/BIG COUNTRY/EDWARDS PLATEAU

CITY           SKY/WX    TMP DP  RH WIND       PRES   REMARKS
COYANOSA 2N      N/A     33  33  98 E6        30.32R WCI  28
JUNCTION 1SSW    N/A     34  33  97 N6        30.31S WCI  29
MERTZON 3NNE     N/A     32  32  98 NE7       30.32S WCI  26
SAN ANGELO 7NW   N/A     33  32  94 N3        30.33S
STRLNG CT 4WSW   N/A     32  30  95 N5        30.33S WCI  27
ST LAWRNCE 5SW   N/A     31  32 100 NE9       30.30S WCI  23
SWEETWATR 11SW   N/A     30  30 100 N5        30.32F WCI  25
WALL 1E          N/A     32  31  96 NE8       30.33F WCI  25
$$

TXZ055-058-074-075-080-082-021200-
TEXAS TECH WEST TEXAS MESONET/FAR WEST/SOUTHWEST MOUNTAINS/TRANS PECOS

CITY           SKY/WX    TMP DP  RH WIND       PRES   REMARKS
$$


USA.gov is the U.S. government's official web portal to all federal, state and local government web resources and services.